Regional Weather Roundup
Issued by NWS Wakefield, VA

Home | Current Version | Previous Version | Graphics & Text | Print | Product List | Glossary On
Versions: 1 2 3 4 5 6 7 8 9 10 11 12 13 14 15 16 17 18 19 20 21 22 23 24 25 26 27
000
ASUS41 KAKQ 241115
RWRAKQ

REGIONAL WEATHER ROUNDUP
NATIONAL WEATHER SERVICE WAKEFIELD VA
700 AM EDT MON APR 24 2017

Note: "fair" indicates few or no clouds below 12,000 feet with no
significant weather and/or obstructions to visibility. * = Denotes
station may not report precipitation (e.g., rain,snow,etc.),
thunder or fog.

VAZ042-051-052>054-056-241200-
NORTHERN VIRGINIA

CITY           SKY/WX    TMP DP  RH WIND       PRES   REMARKS
WASH NATIONAL  CLOUDY    54  47  77 NE9       30.09R
DULLES         CLOUDY    52  47  83 NE6       30.09R
FORT BELVOIR   MOCLDY    51  47  86 CALM      30.08R
QUANTICO       CLOUDY    54  43  66 NE14G23   30.08R
FREDERICKSBRG* CLOUDY    50  46  86 N10G16    30.05R
STAFFORD*      CLOUDY    50  44  80 NE8G17    30.11R
WARRENTON      DRIZZLE   49  46  87 NE6       30.07R
CULPEPER*      DRIZZLE   48  47  96 N6        30.09R
MANASSAS*      LGT RAIN  50  47  89 N3        30.09R
LEESBURG*      CLOUDY    52  52 100 N3        30.11R
WINCHESTER     LGT RAIN  46  45  93 CALM      30.09R
FRONT ROYAL*   CLOUDY    48  48 100 CALM      30.07R
LURAY*         LGT RAIN  46  46 100 N6        30.06R
$$

VAZ048-049-060>072-079>083-241200-
CENTRAL AND SOUTH CENTRAL VIRGINIA

CITY           SKY/WX    TMP DP  RH WIND       PRES   REMARKS
RICHMOND       DRIZZLE   51  50  96 NE12      29.99R FOG
CHESTERFIELD*  CLOUDY    52  34  50 NE8       30.00S
PETERSBURG*    DRIZZLE   51  49  96 NE14G22   29.98R
HANOVER        CLOUDY    50  49  96 VRB7      30.02R
TAPPAHANNOCK*  DRIZZLE   51  51 100 N9        30.02S
QUINTON*       CLOUDY    51  51 100 NE6       29.99R FOG
CHARLOTTSVILLE LGT RAIN  49  46  90 NE13      30.04R FOG
GORDONSVILLE*  CLOUDY    47  46  96 NE8       30.05R FOG
ORANGE*        DRIZZLE   46  45  93 CALM      30.06R
LOUISA*        RAIN      52  50  93 NE10G20   30.03R
BUMPASS*       CLOUDY    47  47 100 NE5       30.04R
FARMVILLE*     HVY RAIN  49  49 100 NE12      29.99R
CREWE*         CLOUDY    49  49 100 NE7       29.97S
FORT PICKETT*  CLOUDY   N/A N/A N/A N9        29.97R
CHASE CITY*    CLOUDY    50  48  94 N7        29.95R
CLARKSVILLE*   CLOUDY    50  50 100 NE5       29.93S
SOUTH HILL*    CLOUDY    51  51 100 N7        30.00R
LAWRENCEVILLE* CLOUDY    52  51  97 NE5       29.95R
EMPORIA*       LGT SNOW  54  54 100 N6        29.95S
$$

VAZ088>098-241200-
SOUTHEAST VIRGINIA

CITY           SKY/WX    TMP DP  RH WIND       PRES   REMARKS
NORFOLK        CLOUDY    58  55  90 NE12G21   29.95R
VIRGINIA BEACH CLOUDY    56  54  93 NE14      29.94R
NORFOLK NAVAL  LGT RAIN  58  55  90 NE16      29.97R
WEST POINT*    CLOUDY    52  51  97 NE9       30.01R
SALUDA*        CLOUDY    53  53 100 NE8       30.01R
NEWPORT NEWS   LGT RAIN  55  54  96 NE10      29.97R FOG
LANGLEY AFB    CLOUDY    55  55 100 NE13      29.97R
FORT EUSTIS    DRIZZLE   56  53  92 NE8       29.95R
WILLIAMSBURG*  CLOUDY    55  55 100 CALM      29.99R
HR EXEC AP*    CLOUDY    57  54  88 NE10G16   29.94R
FRANKLIN*      CLOUDY    56  54  95 NE10      29.95R
US460-WAKEFLD  CLOUDY    55  54  96 VRB3      29.96R FOG
$$

VAZ020-022-025-037-045-241200-
WEST CENTRAL AND SOUTHWEST VIRGINIA

CITY           SKY/WX    TMP DP  RH WIND       PRES   REMARKS
STAUNTON*      DRIZZLE   47  46  97 N5        30.05S
WAYNESBORO*    CLOUDY    46  46 100 N6        30.03R
HOT SPRINGS VA HVY RAIN  39  37  93 E14       29.98R VSB<1/4
LYNCHBURG      CLOUDY    48  46  93 NE15      29.99R
DANVILLE       LGT RAIN  49  49 100 NE13G25   29.93S FOG
SOUTH BOSTON*  CLOUDY    49  48  95 NE7       29.94S
MARTINSVILLE   RAIN      48  46  95 N7        29.97R
ROANOKE        LGT RAIN  48  47  96 NE7       30.00R
BLACKSBURG     HVY RAIN  46  44  93 NE6       29.98S
DUBLIN*        RAIN      46  44  91 E6        29.96R
MARION*        LGT RAIN  45  44  96 E3        29.93S
HILLSVILLE*    LGT RAIN  44  44 100 NE6       29.90S
RICHLANDS*     FAIR      47  45  90 E8        29.85S
WISE*          FOG       46  46 100 CALM      29.88R VSB 3/4
ABINGDON*      MOCLDY    49  46  89 E9        29.85R
$$

MDZ021>025-VAZ099-100-241200-
SOUTHERN MARYLAND AND THE DELMARVA PENINSULA

CITY           SKY/WX    TMP DP  RH WIND       PRES   REMARKS
PATUXENT RIVER CLOUDY    52  48  86 NE13      30.04R
BAY BRIDGE APT CLOUDY    52  46  82 NE6       30.09R HAZE
LEONARDTOWN    CLOUDY    50  45  81 E5        30.06R
DOVER          CLOUDY    51  51 100 NE12      30.07F
GEORGETOWN     CLOUDY    52  47  83 MISG      30.06F
EASTON         CLOUDY    52  46  82 NE7       30.11R
CAMBRIDGE      CLOUDY    52  46  82 NE8       30.06R
SALISBURY      CLOUDY    50  49  96 NE12      30.04S
OCEAN CITY     CLOUDY    52  48  86 NE10      30.04F
WALLOPS ISLAND LGT RAIN  53  52  96 NE22G28   30.02S
ACCOMACK*      CLOUDY    54  52  94 NE14G23   29.99R
$$

NCZ012>017-030>032-241200-
NORTH CENTRAL AND EASTERN NORTH CAROLINA

CITY           SKY/WX    TMP DP  RH WIND       PRES   REMARKS
ROANOKE RAPIDS CLOUDY    54  54 100 N8        29.92R
RALEIGH        HVY RAIN  54  52  93 NE10      29.89R VSB 3/4
ELIZABETH CITY LGT RAIN  61  61 100 NE9       29.92R
AHOSKIE*       DRIZZLE   55  55  98 NE8       29.91F
EDENTON*       DRIZZLE   61  59  93 E5        29.91R
CURRITUCK*     CLOUDY    60  60 100 NE7       29.93R FOG
KILL DEVIL HLS HVY RAIN  61  61 100 CALM      29.91R
MANTEO         RAIN      63  62  98 SE7       29.92R
CAPE HATTERAS  CLOUDY    67  65  93 NE7       29.88F FOG
TARBORO*       NOT AVBL
GOLDSBORO      LGT RAIN  57  57 100 NE7       29.84S
WASHINGTON     HVY RAIN  59  59  99 N9        29.87S
GREENVILLE     RAIN      57  57 100 NE7       29.90S
NEW BERN       RAIN      62  62 100 NE6       29.86S FOG
WILMINGTON     LGT RAIN  64  64 100 NE9       29.80R FOG
$$

VAZ048-241200-
ELSEWHERE

CITY           SKY/WX    TMP DP  RH WIND       PRES   REMARKS
HARRISBURG PA  CLOUDY    49  45  86 CALM      30.12R
BALTIMORE      CLOUDY    53  47  79 NE6       30.09R
ANNAPOLIS      CLOUDY    54  47  77 VRB5      30.08R
ANDREWS AFB    CLOUDY    50  46  87 N7        30.07R
PHILADELPHIA   CLOUDY    50  43  77 NE5       30.13R
HENDERSON NC   CLOUDY    49  48  97 NE9       29.91S
GREENSBORO     LGT RAIN  49  49 100 NE8       29.91R
ROCKY MOUNT    LGT RAIN  55  55 100 NE9       29.89S
$$

VAZ100-241200-
MARINE

STATION/POSITION TIME  TEMP    WIND        PRES    WAVE   SWELL
                       AIR SEA DIR/SP/G            HT/PER HT/PER
                 (UTC) (F)     (DEG/KT/KT) (MB)    (FT/S) (FT/S)
CAPE MAY NJ      1048   51 56   60/  6/ 10 1018.3R
LEWES DE         1048   52 55   80/ 17/ 20 1018.1R
15NM E FENWICK I 1050   52 52   40/ 17/ 21 1017.5F   4/11   3/11
OCEAN-CITY-INLET 1042   52 56   70/  7/ 13 1017.8F
WACHAPREAGUE VA  1048   54 58   40/ 26/ 32 1014.7R
THOMAS POINT MD  1100   52 58   50/ 12/ 13   N/A
GOOSES REEF MD   1100   54 54   40/ 14/ 16 1018.2    2/ 2
COVE POINT MD    1048   52      60/ 15/ 18 1018.1R
SOLOMONS ISLAND  1048   52 61   40/  7/ 10   N/A
BISHOPS HEAD MD  1048   52 60   40/ 12/ 18 1017.3R
PINEY POINT MD   1048           70/  7/  9   N/A
POTOMAC MD       1100   53 61   50/ 16/ 19 1016.1    1/ 3
CAMBRIDGE MD     1048   53 63   60/ 10/ 13 1017.1R
LEWISETTA VA     1048   53 62   60/ 11/ 18 1016.5R
RAPPAHANNOCK LGT 1048           40/ 17/ 19 1015.7R
STINGRAY PT      1050   55      50/ 17/ 21 1015.9R
YORK RVR RNG VA  1048   56      40/ 19/ 21 1014.3R
YORKTOWN VA      1048   56 63   40/ 12/ 15 1014.8R
JAMESTOWN VA     1100   55 67   40/  8/ 12   N/A     0
DOMINION TERM VA 1048   56      50/  9/ 14 1014.4R
KIPTOPEKE VA     1048      60   60/ 13/ 24   N/A
CHES BAY BRIDGE  1048   57 60   60/ 24/ 30 1013.4R
CAPE HENRY VA    1048   56      50/ 25/ 30   N/A
WILLOUBY STN VA  1048   57      50/ 18/ 21 1015.4R
S CRANEY ISL VA  1048   58      50/ 17/ 20 1013.9R
CAPE HENRY BUOY  1042      55                N/A     5/ 7   2/11
1ST LANDING BUOY 1100   57 60              1014.0    4/ 4
CAPE CHARLES BUO 1051      57                N/A     5/ 5   2/12
64NM E OF VA BCH 1050   58 53   80/ 12/ 14 1013.7R   6/ 8   5/ 8
DUCK PIER NC     1048   59 62  100/ 11/ 13 1012.6R
44100 DUCK FRF   1035      54                N/A     6/ 6   2/12
44056 DUCK FRF   1030      59                N/A     6/ 6   2/13
OREGON INLET NC  1042   62 58   80/  5/  9 1012.6R
HATTERAS NC      1048   67 67   30/  3/  5 1011.7R
DIAMOND SHLS NC  1050   74 78  190/ 14/ 21 1011.4R   8/11   7/11
CAPE LOOKOUT NC  1100   69      90/  3/  4 1010.0R
$$




USA.gov is the U.S. government's official web portal to all federal, state and local government web resources and services.